Weather History for Boonville, MO

Change the Weather History Date:

Thursday, January 24, 2013

  Actual Average Record
Temperature  
Mean Temperature 19 °F -  
Max Temperature 27 °F 40 °F 76 °F (1967)
Min Temperature 11 °F 21 °F -11 °F (1963)
Degree Days  
Heating Degree Days 46    
Moisture  
Dew Point 5 °F    
Average Humidity 50    
Maximum Humidity 68    
Minimum Humidity 34    
Precipitation  
Precipitation 0.00 in - - ()
Sea Level Pressure  
Sea Level Pressure 30.40 in    
Wind  
Wind Speed 10 mph (ENE)    
Max Wind Speed 15 mph    
Max Gust Speed 21 mph    
Visibility 10 miles    
Events      
Averages and records for this station are not official NWS values.
T = Trace of Precipitation, MM = Missing Value Source: NWS Daily Summary

Daily Weather History Graph

Daily Weather History Graph

Search for Another Location

Airport:

Trip Planner

Search our weather history database for the weather conditions in past years. The results will help you decide how hot, cold, wet, or windy it might be!

Date:

Astronomy

Jan. 24, 2013 Rise Set
Actual Time 7:23 AM CST 5:23 PM CST
Civil Twilight 6:54 AM CST 5:51 PM CST
Nautical Twilight 6:22 AM CST 6:24 PM CST
Astronomical Twilight 5:50 AM CST 6:55 PM CST
Moon 3:25 PM CST (1/24) 5:20 AM CST (1/24)
Length of Visible Light 10h 57m
Length of Day
10h 00m
Waxing Gibbous, 94% of the Moon is Illuminated
Jan 24
Waxing Gibbous
Jan 26
Full
Feb 3
Last Quarter
Feb 10
New
Feb 17
First Quarter

Hourly Weather History & Observations

Time (CST) Temp. Windchill Dew Point Humidity Pressure Visibility Wind Dir Wind Speed Gust Speed Precip Events Conditions
12:15 AM 25.3 °F 16.7 °F 14.5 °F 64% 30.41 in 10.0 mi North 8.1 mph - N/A   Clear
12:35 AM 24.8 °F 16.1 °F 14.5 °F 65% 30.42 in 10.0 mi North 8.1 mph - N/A   Clear
12:55 AM 24.4 °F 14.9 °F 14.2 °F 65% 30.42 in 10.0 mi North 9.2 mph - N/A   Clear
1:15 AM 23.7 °F 13.3 °F 14.0 °F 66% 30.43 in 10.0 mi North 10.4 mph - N/A   Clear
1:35 AM 23.0 °F 11.7 °F 13.8 °F 68% 30.43 in 10.0 mi North 11.5 mph - N/A   Clear
1:55 AM 22.3 °F 12.2 °F 12.7 °F 67% 30.43 in 10.0 mi North 9.2 mph - N/A   Clear
2:15 AM 21.4 °F 9.1 °F 8.2 °F 57% 30.44 in 10.0 mi NNE 12.7 mph - N/A   Clear
2:35 AM 19.6 °F 6.8 °F 3.4 °F 50% 30.47 in 10.0 mi North 12.7 mph - N/A   Clear
2:55 AM 18.3 °F 5.2 °F 2.7 °F 51% 30.48 in 10.0 mi North 12.7 mph 17.3 mph N/A   Clear
3:15 AM 17.2 °F 3.9 °F 3.2 °F 54% 30.48 in 10.0 mi NNE 12.7 mph - N/A   Clear
3:35 AM 16.5 °F 6.0 °F 3.2 °F 56% 30.48 in 10.0 mi NNE 8.1 mph - N/A   Clear
3:55 AM 15.8 °F 2.1 °F 2.8 °F 57% 30.49 in 10.0 mi North 12.7 mph - N/A   Clear
4:15 AM 14.9 °F 0.3 °F 2.5 °F 58% 30.49 in 10.0 mi NNE 13.8 mph - N/A   Clear
4:35 AM 14.0 °F 2.0 °F 2.5 °F 60% 30.49 in 10.0 mi NNE 9.2 mph - N/A   Clear
4:55 AM 13.8 °F 1.0 °F 2.8 °F 62% 30.50 in 10.0 mi NNE 10.4 mph - N/A   Clear
5:15 AM 13.3 °F -1.8 °F 3.0 °F 64% 30.50 in 10.0 mi NNE 13.8 mph - N/A   Clear
5:35 AM 12.9 °F -2.2 °F 2.7 °F 64% 30.51 in 10.0 mi NNE 13.8 mph 20.7 mph N/A   Clear
5:55 AM 12.7 °F 1.4 °F 2.5 °F 64% 30.51 in 10.0 mi NNE 8.1 mph 19.6 mph N/A   Clear
6:15 AM 12.2 °F -0.2 °F 2.5 °F 65% 30.50 in 10.0 mi NE 9.2 mph - N/A   Clear
6:35 AM 12.0 °F -0.4 °F 2.8 °F 67% 30.51 in 10.0 mi NE 9.2 mph - N/A   Clear
6:55 AM 11.8 °F 0.3 °F 2.7 °F 67% 30.52 in 10.0 mi NE 8.1 mph - N/A   Clear
7:15 AM 12.0 °F 0.5 °F 2.1 °F 65% 30.52 in 10.0 mi ENE 8.1 mph - N/A   Clear
7:35 AM 11.8 °F -0.7 °F 2.3 °F 66% 30.53 in 10.0 mi NE 9.2 mph - N/A   Clear
7:55 AM 12.4 °F 0.9 °F 2.5 °F 65% 30.53 in 10.0 mi NE 8.1 mph - N/A   Clear
8:15 AM 12.9 °F 1.6 °F 3.0 °F 65% 30.53 in 10.0 mi NE 8.1 mph - N/A   Clear
8:35 AM 13.5 °F 0.5 °F 3.4 °F 64% 30.52 in 10.0 mi ENE 10.4 mph - N/A   Clear
8:55 AM 14.0 °F 2.9 °F 3.6 °F 63% 30.54 in 10.0 mi ENE 8.1 mph - N/A   Clear
9:15 AM 14.9 °F 2.3 °F 4.1 °F 62% 30.55 in 10.0 mi East 10.4 mph 16.1 mph N/A   Clear
9:35 AM 15.6 °F 3.2 °F 4.1 °F 60% 30.56 in 10.0 mi ENE 10.4 mph - N/A   Clear
9:55 AM 16.5 °F 5.1 °F 4.5 °F 59% 30.56 in 10.0 mi ENE 9.2 mph - N/A   Clear
10:15 AM 17.2 °F 4.5 °F 4.5 °F 57% 30.54 in 10.0 mi ENE 11.5 mph - N/A   Clear
10:35 AM 18.5 °F 6.1 °F 5.0 °F 56% 30.53 in 10.0 mi ENE 11.5 mph 16.1 mph N/A   Clear
10:55 AM 20.1 °F 7.5 °F 5.5 °F 53% 30.53 in 10.0 mi East 12.7 mph 18.4 mph N/A   Clear
11:15 AM 21.0 °F 10.6 °F 5.4 °F 51% 30.52 in 10.0 mi East 9.2 mph - N/A   Clear
11:35 AM 22.3 °F 12.2 °F 5.5 °F 49% 30.51 in 10.0 mi East 9.2 mph - N/A   Clear
11:55 AM 23.0 °F 10.1 °F 5.5 °F 47% 30.48 in 10.0 mi East 15.0 mph - N/A   Clear
12:15 PM 23.5 °F 11.3 °F 4.3 °F 44% 30.47 in 10.0 mi East 13.8 mph - N/A   Clear
12:35 PM 23.5 °F 12.4 °F 4.1 °F 43% 30.46 in 10.0 mi East 11.5 mph - N/A   Clear
12:55 PM 23.9 °F 13.5 °F 4.5 °F 43% 30.44 in 10.0 mi East 10.4 mph 16.1 mph N/A   Clear
1:15 PM 24.3 °F 13.9 °F 4.6 °F 43% 30.43 in 10.0 mi East 10.4 mph - N/A   Clear
1:35 PM 25.2 °F 15.7 °F 4.3 °F 41% 30.41 in 10.0 mi ENE 9.2 mph - N/A   Clear
1:55 PM 26.1 °F 15.6 °F 4.3 °F 39% 30.40 in 10.0 mi East 11.5 mph - N/A   Clear
2:15 PM 26.4 °F 15.5 °F 3.7 °F 38% 30.38 in 10.0 mi East 12.7 mph - N/A   Clear
2:35 PM 26.4 °F 15.5 °F 4.1 °F 39% 30.37 in 10.0 mi East 12.7 mph - N/A   Clear
2:55 PM 26.2 °F 16.4 °F 4.1 °F 39% 30.36 in 10.0 mi ESE 10.4 mph - N/A   Clear
3:15 PM 26.4 °F 16.6 °F 4.5 °F 39% 30.36 in 10.0 mi East 10.4 mph - N/A   Clear
3:35 PM 26.2 °F 15.8 °F 4.1 °F 39% 30.34 in 10.0 mi East 11.5 mph - N/A   Clear
3:55 PM 26.4 °F 16.6 °F 4.6 °F 39% 30.33 in 10.0 mi East 10.4 mph - N/A   Clear
4:15 PM 26.4 °F 15.5 °F 3.9 °F 38% 30.33 in 10.0 mi ESE 12.7 mph 17.3 mph N/A   Clear
4:35 PM 25.9 °F 17.4 °F 3.6 °F 38% 30.33 in 10.0 mi East 8.1 mph - N/A   Clear
4:55 PM 25.7 °F 16.4 °F 3.9 °F 39% 30.33 in 10.0 mi ESE 9.2 mph - N/A   Mostly Cloudy
5:15 PM 26.1 °F 15.6 °F 3.4 °F 38% 30.31 in 10.0 mi ESE 11.5 mph - N/A   Overcast
5:35 PM 25.9 °F 15.3 °F 3.4 °F 38% 30.30 in 10.0 mi ESE 11.5 mph - N/A   Overcast
5:55 PM 25.9 °F 14.8 °F 2.1 °F 36% 30.29 in 10.0 mi East 12.7 mph 17.3 mph N/A   Overcast
6:15 PM 25.7 °F 15.7 °F 1.0 °F 35% 30.30 in 10.0 mi East 10.4 mph 17.3 mph N/A   Overcast
6:35 PM 26.1 °F 15.6 °F 0.9 °F 34% 30.28 in 10.0 mi East 11.5 mph - N/A   Overcast
6:55 PM 26.1 °F 18.4 °F 1.4 °F 35% 30.29 in 10.0 mi East 6.9 mph - N/A   Overcast
7:15 PM 26.4 °F 16.0 °F 1.8 °F 35% 30.28 in 10.0 mi East 11.5 mph - N/A   Overcast
7:35 PM 26.4 °F 16.0 °F 2.1 °F 35% 30.27 in 10.0 mi East 11.5 mph - N/A   Overcast
7:55 PM 26.2 °F 15.2 °F 2.5 °F 36% 30.25 in 10.0 mi ESE 12.7 mph - N/A   Overcast
8:15 PM 26.2 °F 16.4 °F 2.8 °F 37% 30.26 in 10.0 mi ESE 10.4 mph - N/A   Overcast
8:35 PM 26.4 °F 15.5 °F 3.4 °F 37% 30.24 in 10.0 mi East 12.7 mph - N/A   Overcast
8:55 PM 26.4 °F 20.9 °F 4.1 °F 39% 30.26 in 10.0 mi SSE 4.6 mph - N/A   Overcast
9:15 PM 26.6 °F 16.8 °F 4.5 °F 39% 30.24 in 10.0 mi ESE 10.4 mph - N/A   Overcast
9:35 PM 26.6 °F 16.8 °F 4.6 °F 39% 30.22 in 10.0 mi ESE 10.4 mph - N/A   Overcast
9:55 PM 26.6 °F 20.0 °F 5.2 °F 40% 30.23 in 10.0 mi ESE 5.8 mph - N/A   Overcast
10:15 PM 27.0 °F 20.5 °F 5.4 °F 40% 30.22 in 10.0 mi ESE 5.8 mph - N/A   Overcast
10:35 PM 27.1 °F 20.7 °F 5.7 °F 40% 30.22 in 10.0 mi East 5.8 mph - N/A   Overcast
10:55 PM 27.3 °F 20.9 °F 5.7 °F 40% 30.23 in 10.0 mi East 5.8 mph - N/A   Overcast
11:15 PM 27.5 °F 20.2 °F 6.4 °F 41% 30.20 in 10.0 mi East 6.9 mph - N/A   Overcast
11:35 PM 27.5 °F 21.1 °F 6.1 °F 40% 30.19 in 10.0 mi East 5.8 mph - N/A   Overcast
11:55 PM 27.5 °F 22.2 °F 6.4 °F 41% 30.20 in 10.0 mi East 4.6 mph - N/A   Overcast